FW4092 Weather Reports


time (UTC)temp
F
wind
direction
speed
knots
gust
knots
rain 1hr
in
rain 24hr
in
rain mn
in
humidity
%
barometer
mb
20200222192718 52 42 1.7 3.5 0.00 0.00 0.00 38 1018.2
20200222192219 51 193 0.9 3.5 0.00 0.00 0.00 39 1018.3
20200222191717 51 20 1.7 3.5 0.00 0.00 0.00 41 1018.4
20200222191216 51 336 1.7 3.5 0.00 0.00 0.00 40 1018.6
20200222190715 51 284 0.9 2.6 0.00 0.00 0.00 42 1018.7
20200222190216 51 32 0.9 4.3 0.00 0.00 0.00 42 1018.7
20200222185715 50 87 1.7 4.3 0.00 0.00 0.00 44 1018.7
20200222185214 50 105 1.7 5.2 0.00 0.00 0.00 44 1018.6
20200222184714 50 180 1.7 5.2 0.00 0.00 0.00 44 1018.6
20200222184214 49 107 1.7 3.5 0.00 0.00 0.00 46 1018.6
20200222183713 49 185 1.7 4.3 0.00 0.00 0.00 46 1018.6
20200222183213 49 158 1.7 4.3 0.00 0.00 0.00 45 1018.6
20200222182716 48 150 1.7 4.3 0.00 0.00 0.00 47 1018.5
20200222182215 48 124 1.7 5.2 0.00 0.00 0.00 48 1018.4
20200222181711 47 154 1.7 5.2 0.00 0.00 0.00 50 1018.4
20200222181211 47 103 2.6 7.0 0.00 0.00 0.00 50 1018.4
20200222180710 46 159 2.6 7.0 0.00 0.00 0.00 50 1018.4
20200222180209 46 133 1.7 6.1 0.00 0.00 0.00 51 1018.3
20200222175709 46 129 1.7 7.0 0.00 0.00 0.00 51 1018.4
20200222175209 45 126 2.6 7.0 0.00 0.00 0.00 52 1018.4
20200222174709 45 138 2.6 6.1 0.00 0.00 0.00 52 1018.4
20200222174209 45 132 2.6 6.1 0.00 0.00 0.00 53 1018.4
20200222173709 44 128 1.7 5.2 0.00 0.00 0.00 53 1018.4
20200222173210 44 117 1.7 5.2 0.00 0.00 0.00 53 1018.6
20200222172712 43 130 1.7 5.2 0.00 0.00 0.00 55 1018.9
20200222172208 43 145 1.7 4.3 0.00 0.00 0.00 54 1018.7
20200222171706 43 74 1.7 3.5 0.00 0.00 0.00 54 1018.7
20200222171216 42 95 1.7 3.5 0.00 0.00 0.00 55 1018.8
20200222170710 42 128 0.9 3.5 0.00 0.00 0.00 56 1018.7
20200222170209 41 146 0.9 2.6 0.00 0.00 0.00 57 1018.7
20200222165708 40 173 0.9 3.5 0.00 0.00 0.00 59 1018.7
20200222165209 40 134 1.7 6.1 0.00 0.00 0.00 60 1018.6
20200222164709 39 164 2.6 6.1 0.00 0.00 0.00 61 1018.4
20200222164207 38 146 2.6 6.1 0.00 0.00 0.00 61 1018.2
20200222163707 38 136 2.6 6.1 0.00 0.00 0.00 62 1018.2
20200222163206 37 163 2.6 6.1 0.00 0.00 0.00 62 1018.1
20200222162707 37 135 2.6 6.1 0.00 0.00 0.00 64 1017.9
20200222162207 36 159 2.6 5.2 0.00 0.00 0.00 64 1017.9
20200222161705 35 146 2.6 5.2 0.00 0.00 0.00 67 1017.9
20200222161205 34 148 2.6 7.0 0.00 0.00 0.00 67 1017.9
20200222160705 34 159 3.5 7.8 0.00 0.00 0.00 68 1017.9
20200222160205 33 145 3.5 7.8 0.00 0.00 0.00 69 1017.9
20200222155705 33 117 3.5 7.0 0.00 0.00 0.00 70 1017.9
20200222155205 33 130 3.5 7.8 0.00 0.00 0.00 70 1017.9
20200222154705 32 145 3.5 7.8 0.00 0.00 0.00 70 1017.9
20200222154205 32 152 3.5 7.0 0.00 0.00 0.00 70 1017.9
20200222153706 32 146 3.5 7.0 0.00 0.00 0.00 70 1017.8
20200222153205 32 148 3.5 7.8 0.00 0.00 0.00 70 1017.8
20200222152704 32 141 3.5 7.8 0.00 0.00 0.00 71 1017.8
20200222152205 32 136 3.5 7.0 0.00 0.00 0.00 71 1017.7
20200222151705 32 150 3.5 7.8 0.00 0.00 0.00 71 1017.6
20200222151205 32 153 3.5 7.8 0.00 0.00 0.00 71 1017.5
20200222150703 31 139 3.5 7.0 0.00 0.00 0.00 72 1017.4
20200222150202 31 132 3.5 6.1 0.00 0.00 0.00 71 1017.4
20200222145703 31 150 3.5 6.1 0.00 0.00 0.00 71 1017.5
20200222145203 32 142 3.5 6.1 0.00 0.00 0.00 71 1017.5
20200222144702 32 153 3.5 7.8 0.00 0.00 0.00 70 1017.5
20200222144204 32 135 3.5 7.8 0.00 0.00 0.00 71 1017.4
20200222143702 32 136 3.5 7.8 0.00 0.00 0.00 70 1017.4
20200222143203 32 155 3.5 7.8 0.00 0.00 0.00 69 1017.4
20200222142702 33 141 3.5 7.8 0.00 0.00 0.00 68 1017.4
20200222142202 33 143 3.5 6.1 0.00 0.00 0.00 68 1017.4
20200222141702 33 157 3.5 7.0 0.00 0.00 0.00 69 1017.4
20200222141202 33 154 2.6 7.0 0.00 0.00 0.00 69 1017.5
20200222140703 33 197 1.7 5.2 0.00 0.00 0.00 70 1017.5
20200222140205 33 153 2.6 5.2 0.00 0.00 0.00 70 1017.4
20200222135702 33 166 2.6 5.2 0.00 0.00 0.00 70 1017.4
20200222135203 33 142 2.6 7.0 0.00 0.00 0.00 70 1017.4
20200222134703 33 163 2.6 7.0 0.00 0.00 0.00 71 1017.6
20200222134203 32 142 3.5 7.0 0.00 0.00 0.00 71 1017.4
20200222133702 32 135 3.5 7.8 0.00 0.00 0.00 71 1017.6
20200222133202 32 154 2.6 7.8 0.00 0.00 0.00 71 1017.7
20200222132701 32 172 3.5 7.8 0.00 0.00 0.00 72 1017.6
20200222132202 32 150 3.5 7.8 0.00 0.00 0.00 72 1017.6
20200222131702 32 154 3.5 7.8 0.00 0.00 0.00 71 1017.6
20200222131203 32 169 3.5 7.8 0.00 0.00 0.00 71 1017.4
20200222130702 32 160 3.5 7.8 0.00 0.00 0.00 71 1017.5
20200222130205 32 164 3.5 7.8 0.00 0.00 0.00 71 1017.5
20200222125700 32 132 3.5 7.8 0.00 0.00 0.00 70 1017.6
20200222125200 33 159 3.5 7.0 0.00 0.00 0.00 70 1017.6
20200222124702 33 150 2.6 7.0 0.00 0.00 0.00 71 1017.6
20200222124159 32 153 1.7 5.2 0.00 0.00 0.00 71 1017.5
20200222123700 32 160 1.7 5.2 0.00 0.00 0.00 71 1017.6
20200222123158 32 150 1.7 5.2 0.00 0.00 0.00 71 1017.5
20200222122658 33 153 2.6 5.2 0.00 0.00 0.00 70 1017.5
20200222122158 33 136 2.6 7.8 0.00 0.00 0.00 70 1017.4
20200222121658 33 142 2.6 7.8 0.00 0.00 0.00 69 1017.3
20200222121158 33 148 3.5 7.0 0.00 0.00 0.00 69 1017.3
20200222120657 33 155 3.5 7.0 0.00 0.00 0.00 68 1017.3
20200222120158 33 150 3.5 6.1 0.00 0.00 0.00 68 1017.3
20200222115659 34 138 2.6 6.1 0.00 0.00 0.00 67 1017.4
20200222115158 34 167 2.6 6.1 0.00 0.00 0.00 66 1017.5
20200222114659 34 168 2.6 6.1 0.00 0.00 0.00 66 1017.5
20200222114158 34 159 1.7 5.2 0.00 0.00 0.00 66 1017.6
20200222113658 34 171 0.9 5.2 0.00 0.00 0.00 66 1017.7
20200222113158 34 174 0.9 1.7 0.00 0.00 0.00 66 1017.8
20200222112658 35 165 0.9 4.3 0.00 0.00 0.00 65 1017.8
20200222112158 35 161 1.7 4.3 0.00 0.00 0.00 65 1017.9
20200222111655 34 144 1.7 3.5 0.00 0.00 0.00 66 1017.9
20200222111156 34 159 0.9 4.3 0.00 0.00 0.00 67 1017.9
20200222110656 34 146 0.9 4.3 0.00 0.00 0.00 66 1017.9
20200222110156 34 147 1.7 4.3 0.00 0.00 0.00 66 1017.8
20200222105656 34 153 1.7 4.3 0.00 0.00 0.00 66 1017.7
20200222105156 34 157 1.7 4.3 0.00 0.00 0.00 66 1017.8
20200222104656 34 147 1.7 4.3 0.00 0.00 0.00 66 1017.8
20200222104155 34 159 1.7 3.5 0.00 0.00 0.00 66 1017.9
20200222103655 34 159 0.9 2.6 0.00 0.00 0.00 66 1017.9
20200222103156 34 156 0.9 2.6 0.00 0.00 0.00 66 1017.9
20200222102658 34 169 0.9 3.5 0.00 0.00 0.00 66 1017.9
20200222102156 34 168 0.9 3.5 0.00 0.00 0.00 66 1017.9
20200222101653 34 150 1.7 4.3 0.00 0.00 0.00 66 1017.8
20200222101153 34 146 2.6 5.2 0.00 0.00 0.00 66 1017.8
20200222100655 34 186 3.5 7.8 0.00 0.00 0.00 66 1017.9
20200222100154 34 169 3.5 7.8 0.00 0.00 0.00 66 1017.9
20200222095654 34 146 2.6 7.0 0.00 0.00 0.00 66 1017.9
20200222095152 34 147 2.6 6.1 0.00 0.00 0.00 66 1018.2
20200222094652 34 157 2.6 6.1 0.00 0.00 0.00 66 1018.2
20200222094153 33 131 1.7 6.1 0.00 0.00 0.00 66 1018.3
20200222093652 33 153 1.7 5.2 0.00 0.00 0.00 66 1018.3
20200222093152 34 172 2.6 7.8 0.00 0.00 0.00 66 1018.3
20200222092652 34 132 3.5 7.8 0.00 0.00 0.00 66 1018.2
20200222092152 34 167 3.5 7.8 0.00 0.00 0.00 66 1018.2
20200222091652 34 156 3.5 7.0 0.00 0.00 0.00 66 1018.2
20200222091152 34 162 3.5 7.0 0.00 0.00 0.00 66 1018.1
20200222090652 34 123 4.3 7.0 0.00 0.00 0.00 66 1018.1
20200222090151 34 134 3.5 7.0 0.00 0.00 0.00 66 1018.1
20200222085651 34 167 3.5 7.0 0.00 0.00 0.00 66 1018.1
20200222085151 34 136 3.5 7.8 0.00 0.00 0.00 67 1018.1
20200222084652 34 155 3.5 7.8 0.00 0.00 0.00 67 1018.1
20200222084152 34 150 3.5 7.0 0.00 0.00 0.00 67 1018.2
20200222083652 34 132 3.5 7.0 0.00 0.00 0.00 67 1018.1
20200222083151 34 156 3.5 7.0 0.00 0.00 0.00 67 1018.2
20200222082652 33 144 3.5 7.0 0.00 0.00 0.00 69 1018.2
20200222082152 33 144 3.5 6.1 0.00 0.00 0.00 70 1018.2
20200222081652 33 142 2.6 6.1 0.00 0.00 0.00 70 1018.1
20200222081152 34 151 2.6 5.2 0.00 0.00 0.00 68 1018.2
20200222080650 35 147 1.7 4.3 0.00 0.00 0.00 66 1018.3
20200222080150 35 161 0.9 4.3 0.00 0.00 0.00 66 1018.3
20200222075649 35 157 0.9 2.6 0.00 0.00 0.00 66 1018.3
20200222075149 35 144 1.7 3.5 0.00 0.00 0.00 65 1018.4
20200222074649 36 157 1.7 5.2 0.00 0.00 0.00 65 1018.4
20200222074149 36 151 2.6 5.2 0.00 0.00 0.00 64 1018.4
20200222073650 36 148 2.6 6.1 0.00 0.00 0.00 64 1018.5
20200222073150 36 160 2.6 6.1 0.00 0.00 0.00 64 1018.5
20200222072650 36 143 1.7 4.3 0.00 0.00 0.00 64 1018.5
20200222072149 37 155 1.7 6.1 0.00 0.00 0.00 64 1018.6
20200222071649 37 152 2.6 6.1 0.00 0.00 0.00 64 1018.6
20200222071150 36 165 2.6 4.3 0.00 0.00 0.00 65 1018.6
20200222070649 36 138 1.7 3.5 0.00 0.00 0.00 65 1018.7
20200222070149 36 148 0.9 2.6 0.00 0.00 0.00 64 1018.7
20200222065650 37 146 0.9 2.6 0.00 0.00 0.00 63 1018.7
20200222065149 37 140 0.9 2.6 0.00 0.00 0.00 62 1018.7
20200222064649 38 136 0.9 2.6 0.00 0.00 0.00 61 1018.7
20200222064149 38 316 0.0 1.7 0.00 0.00 0.00 62 1018.7
20200222063648 38 316 0.0 0.0 0.00 0.00 0.00 62 1018.6
20200222063147 38 316 0.0 0.0 0.00 0.00 0.00 61 1018.7
20200222062648 39 316 0.0 0.9 0.00 0.00 0.00 61 1018.7
20200222062148 38 316 0.0 0.9 0.00 0.00 0.00 61 1018.6
20200222061648 38 316 0.0 0.9 0.00 0.00 0.00 62 1018.7
20200222061148 38 316 0.0 1.7 0.00 0.00 0.00 62 1018.6
20200222060645 38 316 0.0 1.7 0.00 0.00 0.00 61 1018.7
20200222060146 39 316 0.0 1.7 0.00 0.00 0.00 59 1018.7
20200222055645 40 316 0.0 0.9 0.00 0.00 0.00 58 1018.7
20200222055150 41 316 0.0 0.9 0.00 0.00 0.00 57 1018.7
20200222054648 41 316 0.0 0.9 0.00 0.00 0.00 57 1018.8
20200222054149 41 316 0.0 0.9 0.00 0.00 0.00 58 1018.7
20200222053646 41 316 0.0 0.9 0.00 0.00 0.00 58 1018.7
20200222053143 40 316 0.0 0.9 0.00 0.00 0.00 58 1018.7
20200222052643 40 316 0.0 0.0 0.00 0.00 0.00 58 1018.7
20200222052143 41 316 0.0 1.7 0.00 0.00 0.00 57 1018.7
20200222051643 41 316 0.9 1.7 0.00 0.00 0.00 56 1018.7
20200222051143 42 316 0.9 1.7 0.00 0.00 0.00 56 1018.7
20200222050643 42 316 0.0 0.9 0.00 0.00 0.00 56 1018.6
20200222050143 42 316 0.0 0.9 0.00 0.00 0.00 56 1018.5
20200222045644 42 316 0.0 0.9 0.00 0.00 0.00 55 1018.5
20200222045140 42 316 0.9 1.7 0.00 0.00 0.00 55 1018.4
20200222044641 42 316 0.9 1.7 0.00 0.00 0.00 55 1018.4
20200222044141 42 316 0.9 1.7 0.00 0.00 0.00 55 1018.3
20200222043641 42 316 0.9 1.7 0.00 0.00 0.00 55 1018.2
20200222043141 42 316 0.9 1.7 0.00 0.00 0.00 55 1018.3
20200222042642 42 316 0.9 1.7 0.00 0.00 0.00 55 1018.3
20200222042140 42 316 0.9 1.7 0.00 0.00 0.00 55 1018.2
20200222041639 42 316 0.9 1.7 0.00 0.00 0.00 55 1018.2
20200222041139 42 316 0.9 1.7 0.00 0.00 0.00 55 1018.2
20200222040639 42 316 0.9 1.7 0.00 0.00 0.00 55 1018.2
20200222040136 42 316 0.0 1.7 0.00 0.00 0.00 55 1018.2
20200222035637 43 316 0.0 1.7 0.00 0.00 0.00 55 1018.1
20200222035136 43 316 0.9 1.7 0.00 0.00 0.00 55 1018.1
20200222034636 43 316 0.9 1.7 0.00 0.00 0.00 54 1017.9
20200222034137 43 341 0.9 1.7 0.00 0.00 0.00 54 1017.9
20200222033637 43 348 0.0 1.7 0.00 0.00 0.00 53 1018.1
20200222033139 43 348 0.9 1.7 0.00 0.00 0.00 53 1018.1
20200222032640 43 348 0.9 1.7 0.00 0.00 0.00 53 1018.2
20200222032138 43 348 0.9 1.7 0.00 0.00 0.00 52 1018.2
20200222031636 44 348 0.9 1.7 0.00 0.00 0.00 52 1018.1
20200222031134 44 348 0.9 1.7 0.00 0.00 0.00 52 1018.1
20200222030633 44 348 0.9 1.7 0.00 0.00 0.00 51 1018.2
20200222030133 45 348 0.9 1.7 0.00 0.00 0.00 50 1018.1
20200222025632 45 348 0.9 1.7 0.00 0.00 0.00 50 1018.1
20200222025133 46 348 0.0 0.9 0.00 0.00 0.00 50 1018.1
20200222024633 46 348 0.9 1.7 0.00 0.00 0.00 49 1018.1
20200222024133 46 348 0.9 1.7 0.00 0.00 0.00 49 1017.9
20200222023633 47 348 0.9 1.7 0.00 0.00 0.00 48 1017.9
20200222023135 47 348 0.9 1.7 0.00 0.00 0.00 47 1017.9
20200222022632 48 348 0.9 1.7 0.00 0.00 0.00 47 1017.9
20200222022133 48 348 0.9 3.5 0.00 0.00 0.00 46 1017.9
20200222021632 48 350 1.7 3.5 0.00 0.00 0.00 45 1017.8
20200222021134 49 323 1.7 3.5 0.00 0.00 0.00 45 1017.8
20200222020633 49 345 1.7 3.5 0.00 0.00 0.00 44 1017.7
20200222020132 50 336 0.9 3.5 0.00 0.00 0.00 43 1017.7
20200222015633 51 319 0.9 1.7 0.00 0.00 0.00 41 1017.6
20200222015132 51 303 0.9 1.7 0.00 0.00 0.00 40 1017.6
20200222014632 52 303 0.9 3.5 0.00 0.00 0.00 39 1017.5
20200222014132 53 303 1.7 3.5 0.00 0.00 0.00 38 1017.5
20200222013631 54 355 1.7 4.3 0.00 0.00 0.00 38 1017.4
20200222013131 55 11 1.7 4.3 0.00 0.00 0.00 35 1017.4
20200222012631 55 342 1.7 6.1 0.00 0.00 0.00 33 1017.3
20200222012130 56 330 2.6 7.0 0.00 0.00 0.00 32 1017.3
20200222011631 57 334 2.6 7.0 0.00 0.00 0.00 30 1017.3
20200222011131 59 329 2.6 6.1 0.00 0.00 0.00 28 1017.3
20200222010631 60 306 1.7 5.2 0.00 0.00 0.00 28 1017.3
20200222010130 61 155 0.9 2.6 0.00 0.00 0.00 27 1017.3
20200222005631 61 152 0.0 1.7 0.00 0.00 0.00 27 1017.4
20200222005130 61 152 0.9 2.6 0.00 0.00 0.00 28 1017.4
20200222004630 62 152 0.9 2.6 0.00 0.00 0.00 27 1017.4
20200222004130 62 137 0.9 2.6 0.00 0.00 0.00 27 1017.3
20200222003629 62 131 0.9 2.6 0.00 0.00 0.00 27 1017.3
20200222003128 62 112 0.9 1.7 0.00 0.00 0.00 26 1017.3
20200222002628 62 108 0.9 1.7 0.00 0.00 0.00 27 1017.4
20200222002127 62 105 0.9 1.7 0.00 0.00 0.00 26 1017.4
20200222001626 62 103 0.9 1.7 0.00 0.00 0.00 26 1017.5
20200222001126 62 89 1.7 3.5 0.00 0.00 0.00 27 1017.4
20200222000626 62 89 0.9 3.5 0.00 0.00 0.00 27 1017.3
20200222000124 62 128 0.9 3.5 0.00 0.00 0.00 27 1017.5
20200221235624 62 126 0.9 2.6 0.00 0.00 0.00 26 1017.6
20200221235124 62 126 1.7 5.2 0.00 0.00 0.00 28 1017.5
20200221234627 62 64 1.7 6.1 0.00 0.00 0.00 27 1017.6
20200221234125 62 157 2.6 6.1 0.00 0.00 0.00 27 1017.5
20200221233622 62 207 1.7 5.2 0.00 0.00 0.00 27 1017.5
20200221233123 62 173 0.9 3.5 0.00 0.00 0.00 26 1017.6
20200221232622 62 122 0.9 2.6 0.00 0.00 0.00 26 1017.7
20200221232123 62 42 0.9 2.6 0.00 0.00 0.00 27 1017.7
20200221231622 62 123 0.9 2.6 0.00 0.00 0.00 27 1017.7
20200221231122 61 131 0.9 2.6 0.00 0.00 0.00 28 1017.7
20200221230622 61 101 0.9 2.6 0.00 0.00 0.00 28 1017.7
20200221230122 61 101 1.7 3.5 0.00 0.00 0.00 28 1017.8
20200221225621 60 85 1.7 3.5 0.00 0.00 0.00 28 1017.8
20200221225120 60 304 1.7 5.2 0.00 0.00 0.00 27 1017.8
20200221224621 60 227 2.6 6.1 0.00 0.00 0.00 27 1017.8
20200221224123 61 130 1.7 6.1 0.00 0.00 0.00 28 1017.9
20200221223621 61 105 1.7 5.2 0.00 0.00 0.00 28 1017.9
20200221223120 60 147 1.7 5.2 0.00 0.00 0.00 28 1018.1
20200221222623 60 106 1.7 3.5 0.00 0.00 0.00 28 1018.1
20200221222120 60 77 1.7 6.1 0.00 0.00 0.00 29 1018.2
20200221221620 60 94 1.7 6.1 0.00 0.00 0.00 28 1018.3
20200221221120 59 90 1.7 5.2 0.00 0.00 0.00 29 1018.2
20200221220620 59 125 1.7 5.2 0.00 0.00 0.00 28 1018.3
20200221220120 59 118 1.7 5.2 0.00 0.00 0.00 28 1018.3
20200221215620 59 142 1.7 5.2 0.00 0.00 0.00 28 1018.4
20200221215120 59 91 1.7 4.3 0.00 0.00 0.00 29 1018.4
20200221214618 58 126 1.7 4.3 0.00 0.00 0.00 30 1018.5
20200221214118 58 88 2.6 6.1 0.00 0.00 0.00 29 1018.6
20200221213617 58 125 2.6 6.1 0.00 0.00 0.00 29 1018.7
20200221213118 58 148 1.7 6.1 0.00 0.00 0.00 30 1018.8
20200221212617 58 76 1.7 6.1 0.00 0.00 0.00 30 1018.8
20200221212118 57 148 1.7 6.1 0.00 0.00 0.00 30 1018.9
20200221211618 57 136 1.7 7.8 0.00 0.00 0.00 30 1018.9
20200221211118 56 132 2.6 7.8 0.00 0.00 0.00 31 1019.0
20200221210618 56 123 1.7 7.0 0.00 0.00 0.00 30 1019.1
20200221210120 56 146 2.6 7.0 0.00 0.00 0.00 31 1019.3
20200221205621 56 74 2.6 7.0 0.00 0.00 0.00 30 1019.4
20200221205122 56 138 2.6 8.7 0.00 0.00 0.00 31 1019.5
20200221204619 55 74 1.7 8.7 0.00 0.00 0.00 31 1019.6
20200221204118 55 110 1.7 7.8 0.00 0.00 0.00 31 1019.7
20200221203618 55 143 1.7 7.8 0.00 0.00 0.00 31 1019.8
20200221203119 55 164 2.6 6.1 0.00 0.00 0.00 31 1019.8
20200221202621 55 156 2.6 6.1 0.00 0.00 0.00 32 1019.9
20200221202119 54 146 2.6 6.1 0.00 0.00 0.00 32 1020.0
20200221201619 54 123 1.7 6.1 0.00 0.00 0.00 32 1020.1
20200221201119 54 160 2.6 8.7 0.00 0.00 0.00 34 1020.1
20200221200618 53 85 2.6 8.7 0.00 0.00 0.00 33 1020.2
20200221200120 53 102 2.6 7.0 0.00 0.00 0.00 33 1020.2
20200221195621 53 125 2.6 7.8 0.00 0.00 0.00 33 1020.5
20200221195118 53 142 2.6 7.8 0.00 0.00 0.00 34 1020.5
20200221194621 52 130 2.6 7.8 0.00 0.00 0.00 34 1020.6
20200221194118 52 74 2.6 7.0 0.00 0.00 0.00 33 1020.6
20200221193621 51 149 2.6 7.0 0.00 0.00 0.00 35 1020.7